sat.trackr.live / text

‹ back to catalog

STARLINK-34676

NORAD 64853 · 2025-152M

PAYLOAD ACTIVE UNKNOWN

§ Identity

Operator
Country
US
Launch date
2025-07-19
Launch site
AFWTR
Launch vehicle
Mass (kg)
RCS (m²)

Purposes: comms

External: N2YO · Heavens-Above · Gunter

§ Orbital elements

Epoch: 2026-09-20T13:48:54.796608Z

Period
93.91 min
Inclination
97.2852°
Eccentricity
0.0002101
Mean motion
15.33440534 rev/d
Perigee alt
464.1 km
Apogee alt
467.0 km
Semi-major
6,843.7 km
B*
9.9628e-5
RAAN
114.1015°
Arg perigee
88.4740°
Mean anomaly
271.6744°
Rev number
6,483

§ Raw data

STARLINK-346761 64853U 25152M   26263.57563422  .00003142  00000+0  99628-4 0  99912 64853  97.2852 114.1015 0002101  88.4740 271.6744 15.33440534 64833

JSON: /api/v1/satellites/64853 · /tle

For live sub-satellite position, see the globe view (requires WebGL).

§ Visibility from observer

Set your observer location to see the next 7 days of passes ≥ 10°. The values pass through the URL so the page stays shareable.

No JS? Fill the form by hand. The geolocation button needs JavaScript.